United States

Ashburn, VA Weather Archive

Below you will find the last 24 hours of weather readings for Ashburn VA

Ashburn VA Today's Weather Data

Observed at: Ashburn, VA

Hour Observerd Temp Pressure Visibility Humidity Dew Point Wind
09:00 Fair 37°F (2.8°C) 101.59 kPa 10 miles 45% 17.6°F (-8°C) 5 mph N 5°
08:00 Fair 36°F (2.2°C) 101.59 kPa 10 miles 56% 21.2°F (-6°C) 5 mph NW 308.75°
07:00 Fair 28°F (-2.2°C) 101.59 kPa 10 miles 74% 21.2°F (-6°C) 5 mph W 263.75°
06:00 Fair 23°F (-5°C) 101.59 kPa 10 miles 86% 19.4°F (-7°C) 6 mph W 263.75°
05:00 Fair 25°F (-3.9°C) 101.59 kPa 10 miles 80% 19.4°F (-7°C) 3 mph W 263.75°
04:00 Fair 25°F (-3.9°C) 101.59 kPa 10 miles 86% 21.2°F (-6°C) 3 mph W 263.75°
03:00 Fair 25°F (-3.9°C) 101.59 kPa 10 miles 86% 21.2°F (-6°C) 4 mph W 263.75°
02:00 Fair 27°F (-2.8°C) 101.59 kPa 10 miles 74% 19.4°F (-7°C) 5 mph W 263.75°
01:00 Fair 28°F (-2.2°C) 101.59 kPa 10 miles 69% 19.4°F (-7°C) 4 mph W 263.75°
00:00 Fair 30°F (-1.1°C) 101.59 kPa 10 miles 64% 19.4°F (-7°C) 9 mph W 263.75°
23:00 Fair 30°F (-1.1°C) 101.59 kPa 10 miles 64% 19.4°F (-7°C) 3 mph W 263.75°
22:00 Fair 32°F (0°C) 101.59 kPa 10 miles 60% 19.4°F (-7°C) 3 mph W 263.75°
21:00 Fair 36°F (2.2°C) 101.59 kPa 10 miles 52% 19.4°F (-7°C) 4 mph N 5°
20:00 Fair 37°F (2.8°C) 101.59 kPa 10 miles 45% 17.6°F (-8°C) 4 mph N 5°
19:00 Fair 41°F (5°C) 101.59 kPa 10 miles 39% 17.6°F (-8°C) 3 mph NE 38.75°
18:00 Fair 45°F (7.2°C) 101.59 kPa 10 miles 34% 17.6°F (-8°C) 3 mph NE 38.75°
17:00 Fair 45°F (7.2°C) 101.59 kPa 10 miles 34% 17.6°F (-8°C) 4 mph NE 38.75°17 mph
16:00 Fair 45°F (7.2°C) 101.59 kPa 10 miles 34% 17.6°F (-8°C) 4 mph NE 38.75°17 mph
15:00 Fair 45°F (7.2°C) 101.59 kPa 10 miles 34% 17.6°F (-8°C) 9 mph N 5°16 mph
14:00 Fair 45°F (7.2°C) 101.59 kPa 10 miles 34% 17.6°F (-8°C) 11 mph N 5°17 mph
13:00 Fair 43°F (6.1°C) 101.59 kPa 10 miles 34% 15.8°F (-9°C) 15 mph N 5°19 mph
12:00 Fair 43°F (6.1°C) 101.59 kPa 10 miles 34% 15.8°F (-9°C) 15 mph N 5°19 mph
11:00 Fair 41°F (5°C) 101.59 kPa 10 miles 36% 15.8°F (-9°C) 5 mph N 5°17 mph
10:00 Fair 37°F (2.8°C) 101.59 kPa 10 miles 38% 14°F (-10°C) 10 mph N 5°17 mph


Home | Earthquakes | About Us | Contact Us | Privacy

Copyright Friendly Forecast 2012 - 2021